Tracking 28125 objects as of 2-Oct-2023
HD Live streaming from Space Station
objects crossing your sky now

STARLINK-4728

Track STARLINK-4728 now!
10-day predictions
STARLINK-4728 is classified as:


NORAD ID: 53793
Int'l Code: 2022-111W
Perigee: 545.4 km
Apogee: 548.4 km
Inclination: 53.2 °
Period: 95.4 minutes
Semi major axis: 6917 km
RCS: Unknown
Launch date: September 11, 2022
Source: United States (US)
Launch site: AIR FORCE EASTERN TEST RANGE (AFETR)
Your satellite tracking list
Your tracking list is empty




NASA's NSSDC Master Catalog

Two Line Element Set (TLE):
1 53793U 22111W   23275.11375082 -.00001230  00000-0 -59206-4 0  9994
2 53793  53.2153 307.3533 0002129  96.2211 263.9024 15.08835391 58593
Source of the keplerian elements: AFSPC